Find Starlink 35982

NORAD ID: 66828 Int'l Des: 2025-280 Owner: SPXS Country: US Constellation: starlink operational
LEOCIRCULAR

当前视图

正在加载3D地球...

About Starlink 35982

Starlink 35982 (NORAD 66828) is a starlink constellation satellite (v2 mini) launched Dec 2, 2025 by SPXS of US. It operates in LEO, CIRCULAR orbit with a mass of 575.00 kg.

关于 Starlink 35982

正在加载描述...

即将过境

Passes for default location (London). Set your location on the main map for personalized predictions.

高度历史

Loading altitude history...

两行轨道根数

1 66828U 25280H 26194.60287348 .00001575 00000-0 13973-3 0 9991
2 66828 70.0018 17.1003 0002579 268.3378 91.7486 14.98340966 34934
Epoch: Jul 13, 2026 • Age: 11 hours

当前状态

高度 574.2 km
远地点 / 近地点 N/A
速度 7.57 km/s
星下点 5.34°N, 60.27°E
发射日期 Dec 2, 2025
运行时间 0.6 years
类型 internet

技术详情

分类 Payload
质量 575.00 kg
干质量 530.00 kg
总质量 575.00 kg
长度 0.30 m
直径 4.10 m
跨度 29.00 m
形状 Box + pan
制造商 SPXS
平台类型 Starlink V2MO
阶段状态 In Orbit
所有者/国家 SPXS/US

Most Searched